{"data":{"norad_id":64184,"intl_designator":"2025-113Q","name":"STARLINK-34197","alt_names":[],"object_type":"PAYLOAD","status":"ACTIVE","operator":null,"country":"US","launch_date":"2025-05-28","launch_site_code":"AFETR","launch_vehicle":null,"mission":null,"orbit_class":"UNKNOWN","rcs_meters":null,"size_class":null,"mass_kg":null,"dimensions":null,"purposes":["comms"],"wikipedia_slug":null,"has_3d_model":false,"image_url":null,"decayed_at":null,"tle_current":{"epoch":"2026-09-20T00:22:52.817376Z","epoch_age_seconds":182334,"freshness":"STALE","line1":"1 64184U 25113Q   26263.01588909  .00015318  00000+0  46360-3 0  9993","line2":"2 64184  53.1571 268.0592 0002126  84.4725 275.6520 15.34397026 74828","mean_motion":15.34397026,"eccentricity":0.0002126,"inclination_deg":53.1571,"raan_deg":268.0592,"arg_perigee_deg":84.4725,"mean_anomaly_deg":275.652,"bstar":0.0004636,"rev_number":7482,"period_min":93.847939978997,"perigee_km":461.25771506181,"apogee_km":464.16644409044,"semimajor_km":6840.8490795761,"source":"CELESTRAK","updated_at":"2026-09-21T09:00:35.245713Z"}}}